User: anonymous   Login
Location: Unspecified
(0.0000°N, 0.0000°E)
Time: 21:49:11
(UTC+00:00)
Language:

GONETS M 10 (M20) - Orbit

View from above orbital plane
View from above orbital plane
View from above satellite
View from above satellite

Ground track
Ground track

The orbit data is extracted from the following two-line orbital elements,

1 40063U 14036C   17117.74671186 +.00000010 +00000-0 +00000-0 0  9995
2 40063 082.5124 220.3824 0020981 215.3900 144.5789 12.42893438127853
Epoch (UTC): 27 April 2017 17:55:15
Eccentricity: 0.0020981
inclination: 82.5124°
perigee height: 1478 km
apogee height: 1511 km
right ascension of ascending node: 220.3824°
argument of perigee: 215.3900°
revolutions per day: 12.42893438
mean anomaly at epoch: 144.5789°
orbit number at epoch: 12785

The dashed part of the orbit path shows where the satellite is in the earth's shadow,  

DLR